RJCN

Details ICAO RJCN (SHB)
Name NAKASHIBETSU
Region Japan
Timezone Asia/Tokyo (UTC+9.0)
Plans Departing 19
Arriving 23
Stats Elevation 234 ft / 71 m (AMSL)
Location 43.577427° 144.959791°
Runways 1
Magnetic Variation 8.944° W
Sunrise 2018-05-25 18:47:23 UTC / 2018-05-26 03:47:23 Local
Sunset 2018-05-26 09:49:48 UTC / 2018-05-26 18:49:48 Local
Advertisement - Login to hide

Runways

ID Width Length Bearing (true) Bearing (mag) Surface Threshold Offset Overrun Length
08 150 ft / 46 m 6,549 ft / 1,996 m 70.96° 79.90° Asphalt 0 ft / 0 m 200 ft / 61 m
26 150 ft / 46 m 6,549 ft / 1,996 m 250.97° 259.91° Asphalt 0 ft / 0 m 200 ft / 61 m

Approach Navaids

Runway Type Ident Frequency Range Bearing (true) Bearing (mag) Slope Elevation
08 Localiser INS 109.35 MHz 18 nm / 33 km 70.97° 79.92° - 234 ft / 71 m (AMSL)
08 Glidescope INS 109.35 MHz 10 nm / 19 km 70.97° 79.91° 3.00° 234 ft / 71 m (AMSL)
08 DME INS 109.35 MHz 18 nm / 33 km - - - 234 ft / 71 m (AMSL)

Map

Weather


0- 5 10 15 20 25 30 35+ Temperature / ° C

Clouds and Precipitation
Forecast for 2018-05-26 06:00 UTC. Updated an hour ago

Ground ~20,000 ft ~40,000 ft Winds

METAR

RJCN 260600Z 36006KT 290V050 9999 FEW020 SCT035 14/06 Q1008

TAF

Not found
Warning: Do not use this data for real-world aviation or navigation. No guarantee of current accuracy is given.